User: anonymous   Login
Location: Cypress Hills Dark-Sky Preserve - CHICO
(49.6176°N, 110.2634°W)
Time: 10:29:56
(UTC-06:00)
Language:

SPOT 5 - Orbit

View from above orbital plane
View from above orbital plane
View from above satellite
View from above satellite

Ground track
Ground track

The orbit data is extracted from the following two-line orbital elements,

1 27421U 02021A   18114.16233788  .00000052  00000-0  22699-4 0  9993
2 27421  98.3627 182.0787 0136531  95.8576 265.8209 14.51926234830791
Epoch (UTC): 24 April 2018 03:53:45
Eccentricity: 0.0136531
inclination: 98.3627°
perigee height: 622 km
apogee height: 816 km
right ascension of ascending node: 182.0787°
argument of perigee: 95.8576°
revolutions per day: 14.51926234
mean anomaly at epoch: 265.8209°
orbit number at epoch: 83079

The dashed part of the orbit path shows where the satellite is in the earth's shadow,  

DLR